H1 CPF 2 NER 2025 11 2 9 306 01 glonass135 H2 1600801 9135 41330 2025 11 2 0 0 0 2025 11 5 23 45 0 900 1 1 0 0 0 1 H9 10 0 60981 0.00000 0 -11010869.346 13080738.977 -18892795.548 10 0 60981 900.00000 0 -10608049.109 10671263.253 -20566564.768 10 0 60981 1800.00000 0 -10374107.150 8057719.570 -21839737.215 10 0 60981 2700.00000 0 -10335306.615 5303815.615 -22687661.544 10 0 60981 3600.00000 0 -10506263.007 2478046.210 -23093998.495 10 0 60981 4500.00000 0 -10889268.111 -348931.885 -23051027.079 10 0 60981 5400.00000 0 -11474152.562 -3107007.579 -22559780.676 10 0 60981 6300.00000 0 -12238691.762 -5729292.878 -21630011.581 10 0 60981 7200.00000 0 -13149536.899 -8154659.229 -20279985.879 10 0 60981 8100.00000 0 -14163630.739 -10330028.374 -18536113.737 10 0 60981 9000.00000 0 -15230047.665 -12212323.936 -16432423.244 10 0 60981 9900.00000 0 -16292179.787 -13770004.405 -14009888.799 10 0 60981 10800.00000 0 -17290176.761 -14984115.931 -11315627.636 10 0 60981 11700.00000 0 -18163536.522 -15848823.409 -8401980.447 10 0 60981 12600.00000 0 -18853738.127 -16371400.104 -5325494.151 10 0 60981 13500.00000 0 -19306806.343 -16571678.546 -2145826.546 10 0 60981 14400.00000 0 -19475700.692 -16480987.721 1075406.066 10 0 60981 15300.00000 0 -19322429.138 -16140622.763 4275816.209 10 0 60981 16200.00000 0 -18819798.161 -15599912.526 7393444.955 10 0 60981 17100.00000 0 -17952726.217 -14913966.881 10367951.436 10 0 60981 18000.00000 0 -16719065.647 -14141198.580 13141769.809 10 0 60981 18900.00000 0 -15129898.473 -13340723.582 15661212.182 10 0 60981 19800.00000 0 -13209293.157 -12569748.493 17877497.150 10 0 60981 20700.00000 0 -10993531.538 -11881054.135 19747685.016 10 0 60981 21600.00000 0 -8529836.775 -11320680.086 21235502.595 10 0 60981 22500.00000 0 -5874653.550 -10925906.708 22312042.477 10 0 60981 23400.00000 0 -3091550.050 -10723618.917 22956323.808 10 0 60981 24300.00000 0 -248826.736 -10729120.283 23155704.016 10 0 60981 25200.00000 0 2583070.986 -10945447.629 22906133.402 10 0 60981 26100.00000 0 5334230.783 -11363215.764 22212247.107 10 0 60981 27000.00000 0 7937932.641 -11961000.153 21087291.726 10 0 60981 27900.00000 0 10333180.200 -12706243.073 19552886.650 10 0 60981 28800.00000 0 12466999.705 -13556646.920 17638623.220 10 0 60981 29700.00000 0 14296411.194 -14461997.727 15381507.747 10 0 60981 30600.00000 0 15789989.596 -15366343.566 12825257.601 10 0 60981 31500.00000 0 16928950.001 -16210436.959 10019462.629 10 0 60981 32400.00000 0 17707711.058 -16934338.627 7018627.163 10 0 60981 33300.00000 0 18133912.164 -17480072.363 3881110.696 10 0 60981 34200.00000 0 18227883.241 -17794217.861 667987.843 10 0 60981 35100.00000 0 18021589.265 -17830330.400 -2558149.648 10 0 60981 36000.00000 0 17557094.296 -17551083.149 -5734424.517 10 0 60981 36900.00000 0 16884610.599 -16930039.377 -8798913.770 10 0 60981 37800.00000 0 16060216.457 -15952977.594 -11691870.862 10 0 60981 38700.00000 0 15143340.632 -14618711.732 -14356904.794 10 0 60981 39600.00000 0 14194121.551 -12939370.279 -16742091.571 10 0 60981 40500.00000 0 13270754.523 -10940121.530 -18800995.132 10 0 60981 41400.00000 0 12426940.564 -8658355.940 -20493577.000 10 0 60981 42300.00000 0 11709545.712 -6142359.810 -21786976.524 10 0 60981 43200.00000 0 11156570.249 -3449536.080 -22656146.594 10 0 60981 44100.00000 0 10795513.564 -644247.077 -23084332.959 10 0 60981 45000.00000 0 10642203.118 2204630.215 -23063388.636 10 0 60981 45900.00000 0 10700135.912 5026334.111 -22593918.376 10 0 60981 46800.00000 0 10960358.903 7750923.789 -21685251.563 10 0 60981 47700.00000 0 11401891.904 10311948.160 -20355245.257 10 0 60981 48600.00000 0 11992673.633 12648967.734 -18629922.330 10 0 60981 49500.00000 0 12690989.650 14709825.768 -16542952.686 10 0 60981 50400.00000 0 13447320.864 16452575.733 -14134988.417 10 0 60981 51300.00000 0 14206533.868 17846986.754 -11452866.408 10 0 60981 52200.00000 0 14910320.300 18875566.436 -8548694.216 10 0 60981 53100.00000 0 15499782.298 19534060.620 -5478837.188 10 0 60981 54000.00000 0 15918055.230 19831411.404 -2302826.508 10 0 60981 54900.00000 0 16112857.614 19789177.228 917790.842 10 0 60981 55800.00000 0 16038861.336 19440441.010 4120638.143 10 0 60981 56700.00000 0 15659782.958 18828253.448 7243708.517 10 0 60981 57600.00000 0 14950108.621 18003677.600 10226555.396 10 0 60981 58500.00000 0 13896380.307 17023517.176 13011451.564 10 0 60981 59400.00000 0 12497989.443 15947823.764 15544495.198 10 0 60981 60300.00000 0 10767444.111 14837287.099 17776642.531 10 0 60981 61200.00000 0 8730097.802 13750617.081 19664648.081 10 0 60981 62100.00000 0 6423349.724 12742026.398 21171895.271 10 0 60981 63000.00000 0 3895348.206 11858918.360 22269102.202 10 0 60981 63900.00000 0 1203249.160 11139876.049 22934889.491 10 0 60981 64800.00000 0 -1588900.271 10613036.539 23156199.509 10 0 60981 65700.00000 0 -4412567.325 10294918.191 22928558.797 10 0 60981 66600.00000 0 -7197330.772 10189750.481 22256178.038 10 0 60981 67500.00000 0 -9873563.766 10289335.202 21151886.750 10 0 60981 68400.00000 0 -12375092.520 10573445.953 19636902.628 10 0 60981 69300.00000 0 -14641721.320 11010750.512 17740438.482 10 0 60981 70200.00000 0 -16621519.311 11560218.657 15499152.708 10 0 60981 71100.00000 0 -18272773.733 12172957.505 12956452.310 10 0 60981 72000.00000 0 -19565527.578 12794397.933 10161660.609 10 0 60981 72900.00000 0 -20482636.611 13366740.307 7169064.745 10 0 60981 73800.00000 0 -21020300.568 13831556.098 4036860.891 10 0 60981 74700.00000 0 -21188045.432 14132434.637 826017.705 10 0 60981 75600.00000 0 -21008156.986 14217561.700 -2400919.360 10 0 60981 76500.00000 0 -20514589.342 14042119.022 -5581058.593 10 0 60981 77400.00000 0 -19751394.818 13570401.055 -8652402.000 10 0 60981 78300.00000 0 -18770742.221 12777557.268 -11555068.949 10 0 60981 79200.00000 0 -17630608.451 11650884.187 -14232477.967 10 0 60981 80100.00000 0 -16392242.393 10190610.855 -16632462.075 10 0 60981 81000.00000 0 -15117509.805 8410143.134 -18708294.657 10 0 60981 81900.00000 0 -13866232.743 6335755.634 -20419605.039 10 0 60981 82800.00000 0 -12693636.959 4005743.750 -21733165.458 10 0 60981 83700.00000 0 -11648015.623 1469071.267 -22623534.188 10 0 60981 84600.00000 0 -10768707.980 -1216429.606 -23073542.752 10 0 60981 85500.00000 0 -10084477.667 -3986230.212 -23074618.564 10 0 60982 0.00000 0 -9612358.001 -6771558.162 -22626937.818 10 0 60982 900.00000 0 -9357011.202 -9502029.885 -21739406.552 10 0 60982 1800.00000 0 -9310627.351 -12108349.708 -20429472.107 10 0 60982 2700.00000 0 -9453364.637 -14524968.510 -18722769.012 10 0 60982 3600.00000 0 -9754311.137 -16692588.448 -16652607.628 10 0 60982 4500.00000 0 -10172925.684 -18560412.132 -14259316.127 10 0 60982 5400.00000 0 -10660895.767 -20088043.953 -11589449.210 10 0 60982 6300.00000 0 -11164333.165 -21246966.109 -8694879.294 10 0 60982 7200.00000 0 -11626214.103 -22021529.747 -5631788.036 10 0 60982 8100.00000 0 -11988960.824 -22409421.838 -2459577.776 10 0 60982 9000.00000 0 -12197055.810 -22421590.199 760276.137 10 0 60982 9900.00000 0 -12199578.742 -22081631.491 3965410.140 10 0 60982 10800.00000 0 -11952559.766 -21424669.175 7093771.878 10 0 60982 11700.00000 0 -11421050.404 -20495769.390 10084811.634 10 0 60982 12600.00000 0 -10580825.300 -19347961.629 12880643.388 10 0 60982 13500.00000 0 -9419643.370 -18039947.195 15427153.941 10 0 60982 14400.00000 0 -7938015.117 -16633591.036 17675039.614 10 0 60982 15300.00000 0 -6149443.259 -15191301.294 19580751.429 10 0 60982 16200.00000 0 -4080125.393 -13773405.292 21107331.474 10 0 60982 17100.00000 0 -1768129.452 -12435630.683 22225125.127 10 0 60982 18000.00000 0 737925.693 -11226796.121 22912355.936 10 0 60982 18900.00000 0 3380631.876 -10186807.169 23155552.346 10 0 60982 19800.00000 0 6095924.740 -9345040.736 22949817.948 10 0 60982 20700.00000 0 8815502.005 -8719185.435 22298939.478 10 0 60982 21600.00000 0 11469428.650 -8314586.663 21215329.586 10 0 60982 22500.00000 0 13988822.577 -8124124.430 19719804.190 10 0 60982 23400.00000 0 16308510.347 -8128629.982 17841197.190 10 0 60982 24300.00000 0 18369543.207 -8297824.764 15615818.350 10 0 60982 25200.00000 0 20121468.698 -8591743.302 13086763.227 10 0 60982 26100.00000 0 21524262.584 -8962580.904 10303087.119 10 0 60982 27000.00000 0 22549839.548 -9356888.768 7318858.037 10 0 60982 27900.00000 0 23183078.318 -9718023.754 4192106.454 10 0 60982 28800.00000 0 23422317.124 -9988748.682 983692.278 10 0 60982 29700.00000 0 23279297.749 -10113871.977 -2243888.451 10 0 60982 30600.00000 0 22778559.953 -10042813.271 -5427732.912 10 0 60982 31500.00000 0 21956311.628 -9731984.283 -8505771.545 10 0 60982 32400.00000 0 20858822.731 -9146882.007 -11417993.043 10 0 60982 33300.00000 0 19540411.535 -8263803.446 -14107628.736 10 0 60982 34200.00000 0 18061109.386 -7071107.373 -16522271.722 10 0 60982 35100.00000 0 16484103.881 -5569968.211 -18614907.634 10 0 60982 36000.00000 0 14873069.656 -3774588.955 -20344836.091 10 0 60982 36900.00000 0 13289500.513 -1711863.440 -21678464.370 10 0 60982 37800.00000 0 11790156.050 579498.246 -22589957.910 10 0 60982 38700.00000 0 10424730.562 3050344.553 -23061735.396 10 0 60982 39600.00000 0 9233841.991 5642899.654 -23084799.606 10 0 60982 40500.00000 0 8247424.569 8292946.808 -22658898.602 10 0 60982 41400.00000 0 7483591.277 10932286.493 -21792515.345 10 0 60982 42300.00000 0 6948012.076 13491366.738 -20502687.108 10 0 60982 43200.00000 0 6633831.930 15901976.198 -18814659.350 10 0 60982 44100.00000 0 6522129.834 18099888.366 -16761381.749 10 0 60982 45000.00000 0 6582897.424 20027347.567 -14382857.011 10 0 60982 45900.00000 0 6776494.054 21635294.370 -11725355.712 10 0 60982 46800.00000 0 7055515.504 22885239.125 -8840512.801 10 0 60982 47700.00000 0 7366996.433 23750707.076 -5784323.545 10 0 60982 48600.00000 0 7654852.984 24218196.504 -2616058.449 10 0 60982 49500.00000 0 7862462.263 24287611.586 602882.004 10 0 60982 50400.00000 0 7935269.929 23972153.438 3810150.777 10 0 60982 51300.00000 0 7823316.225 23297675.235 6943653.441 10 0 60982 52200.00000 0 7483574.402 22301529.361 9942740.446 10 0 60982 53100.00000 0 6882003.422 21030955.393 12749370.131 10 0 60982 54000.00000 0 5995228.783 19541076.498 15309220.839 10 0 60982 54900.00000 0 4811780.756 17892587.739 17572731.614 10 0 60982 55800.00000 0 3332837.590 16149232.271 19496052.296 10 0 60982 56700.00000 0 1572441.592 14375169.923 21041885.613 10 0 60982 57600.00000 0 -442822.401 12632346.916 22180205.842 10 0 60982 58500.00000 0 -2674674.603 10977975.365 22888840.698 10 0 60982 59400.00000 0 -5074480.839 9462226.668 23153905.549 10 0 60982 60300.00000 0 -7585032.687 8126234.164 22970081.450 10 0 60982 61200.00000 0 -10142695.652 7000487.918 22340731.155 10 0 60982 62100.00000 0 -12679838.361 6103688.470 21277849.938 10 0 60982 63000.00000 0 -15127443.806 5442107.658 19801850.946 10 0 60982 63900.00000 0 -17417795.529 5009483.778 17941187.699 10 0 60982 64800.00000 0 -19487127.849 4787456.195 15731819.418 10 0 60982 65700.00000 0 -21278130.025 4746521.941 13216527.908 10 0 60982 66600.00000 0 -22742199.480 4847474.780 10444097.839 10 0 60982 67500.00000 0 -23841349.118 5043266.567 7468375.250 10 0 60982 68400.00000 0 -24549687.700 5281212.393 4347221.949 10 0 60982 69300.00000 0 -24854409.828 5505445.901 1141386.055 10 0 60982 70200.00000 0 -24756252.716 5659519.930 -2086688.845 10 0 60982 71100.00000 0 -24269399.478 5689040.882 -5274091.825 10 0 60982 72000.00000 0 -23420832.399 5544223.381 -8358684.707 10 0 60982 72900.00000 0 -22249163.294 5182254.861 -11280328.347 10 0 60982 73800.00000 0 -20802990.657 4569367.760 -13982069.581 10 0 60982 74700.00000 0 -19138853.661 3682529.552 -16411264.067 10 0 60982 75600.00000 0 -17318870.392 2510677.353 -18520611.885 10 0 60982 76500.00000 0 -15408161.030 1055443.527 -20269084.765 10 0 60982 77400.00000 0 -13472165.671 -668659.282 -21622726.420 10 0 60982 78300.00000 0 -11573970.475 -2634602.047 -22555310.368 10 0 60982 79200.00000 0 -9771754.977 -4803737.107 -23048842.895 10 0 60982 80100.00000 0 -8116467.704 -7127191.989 -23093902.106 10 0 60982 81000.00000 0 -6649826.898 -9547700.696 -22689807.521 10 0 60982 81900.00000 0 -5402728.967 -12001795.595 -21844618.095 10 0 60982 82800.00000 0 -4394129.605 -14422268.121 -20574959.863 10 0 60982 83700.00000 0 -3630442.338 -16740795.570 -18905687.744 10 0 60982 84600.00000 0 -3105477.303 -18890624.683 -16869389.040 10 0 60982 85500.00000 0 -2800920.421 -20809200.575 -14505739.131 10 0 60983 0.00000 0 -2687330.442 -22440632.101 -11860722.733 10 0 60983 900.00000 0 -2725609.888 -23737892.730 -8985734.795 10 0 60983 1800.00000 0 -2868886.399 -24664664.250 -5936582.340 10 0 60983 2700.00000 0 -3064723.810 -25196750.668 -2772401.918 10 0 60983 3600.00000 0 -3257569.223 -25323002.460 445482.971 10 0 60983 4500.00000 0 -3391332.455 -25045714.845 3654743.959 10 0 60983 5400.00000 0 -3411989.167 -24380484.465 6793246.715 10 0 60983 6300.00000 0 -3270098.193 -23355531.376 9800244.059 10 0 60983 7200.00000 0 -2923127.368 -22010515.259 12617540.901 10 0 60983 8100.00000 0 -2337490.268 -20394895.473 15190609.315 10 0 60983 9000.00000 0 -1490208.313 -18565903.180 17469633.176 10 0 60983 9900.00000 0 -370128.215 -16586209.590 19410463.104 10 0 60983 10800.00000 0 1021356.915 -14521386.608 20975464.227 10 0 60983 11700.00000 0 2670114.144 -12437264.562 22134241.219 10 0 60983 12600.00000 0 4549614.660 -10397295.845 22864227.182 10 0 60983 13500.00000 0 6621802.748 -8460032.983 23151125.314 10 0 60983 14400.00000 0 8838455.902 -6676825.063 22989194.762 10 0 60983 15300.00000 0 11142981.875 -5089827.622 22381374.633 10 0 60983 16200.00000 0 13472580.252 -3730408.426 21339242.918 10 0 60983 17100.00000 0 15760680.764 -2618015.460 19882809.834 10 0 60983 18000.00000 0 17939558.533 -1759554.603 18040148.128 10 0 60983 18900.00000 0 19943018.469 -1149303.453 15846865.829 10 0 60983 19800.00000 0 21709037.412 -769365.461 13345430.061 10 0 60983 20700.00000 0 23182253.529 -590645.900 10584353.605 10 0 60983 21600.00000 0 24316198.151 -574309.001 7617258.926 10 0 60983 22500.00000 0 25075175.375 -673654.948 4501837.163 10 0 60983 23400.00000 0 25435709.090 -836337.136 1298722.288 10 0 60983 24300.00000 0 25387495.111 -1006825.185 -1929697.260 10 0 60983 25200.00000 0 24933816.939 -1129008.125 -5120505.392 10 0 60983 26100.00000 0 24091406.562 -1148825.830 -8211498.399 10 0 60983 27000.00000 0 22889755.520 -1016815.187 -11142412.418 10 0 60983 27900.00000 0 21369905.127 -690461.018 -13856112.825 10 0 60983 28800.00000 0 19582767.177 -136250.094 -16299720.726 10 0 60983 29700.00000 0 17587046.630 668660.534 -18425653.308 10 0 60983 30600.00000 0 15446854.708 1735232.983 -20192556.846 10 0 60983 31500.00000 0 13229113.849 3061847.963 -21566113.645 10 0 60983 32400.00000 0 11000864.478 4634144.441 -22519707.193 10 0 60983 33300.00000 0 8826587.208 6425406.574 -23034932.954 10 0 60983 34200.00000 0 6765652.908 8397481.597 -23101945.608 10 0 60983 35100.00000 0 4870007.012 10502189.917 -22719637.020 10 0 60983 36000.00000 0 3182183.995 12683167.963 -21895642.612 10 0 60983 36900.00000 0 1733733.539 14878066.307 -20646177.240 10 0 60983 37800.00000 0 544122.187 17021010.935 -18995704.905 10 0 60983 38700.00000 0 -379845.980 19045224.792 -16976449.713 10 0 60983 39600.00000 0 -1044067.905 20885700.319 -14627758.458 10 0 60983 40500.00000 0 -1466640.413 22481811.869 -11995327.822 10 0 60983 41400.00000 0 -1676842.783 23779759.656 -9130311.619 10 0 60983 42300.00000 0 -1713647.932 24734744.082 -6088325.712 10 0 60983 43200.00000 0 -1623826.537 25312780.758 -2928369.908 10 0 60983 44100.00000 0 -1459725.126 25492081.500 288312.339 10 0 60983 45000.00000 0 -1276812.482 25263944.756 3499414.586 10 0 60983 45900.00000 0 -1131098.039 24633119.257 6642765.953 10 0 60983 46800.00000 0 -1076531.032 23617626.468 9657525.006 10 0 60983 47700.00000 0 -1162489.672 22248049.766 12485346.517 10 0 60983 48600.00000 0 -1431465.702 20566320.129 15071499.429 10 0 60983 49500.00000 0 -1917041.471 18624048.747 17365915.370 10 0 60983 50400.00000 0 -2642244.450 16480475.410 19324148.391 10 0 60983 51300.00000 0 -3618348.581 14200117.194 20908228.350 10 0 60983 52200.00000 0 -4844173.416 11850214.037 22087392.299 10 0 60983 53100.00000 0 -6305911.606 9498076.116 22838680.306 10 0 60983 54000.00000 0 -7977493.665 7208441.898 23147384.557 10 0 60983 54900.00000 0 -9821476.815 5040955.354 23007342.961 10 0 60983 55800.00000 0 -11790423.172 3047866.158 22421071.164 10 0 60983 56700.00000 0 -13828712.142 1272047.728 21399729.510 10 0 60983 57600.00000 0 -15874713.776 -254584.838 19962924.403 10 0 60983 58500.00000 0 -17863234.318 -1512191.076 18138346.388 10 0 60983 59400.00000 0 -19728133.378 -2493608.895 15961250.384 10 0 60983 60300.00000 0 -21405004.230 -3204420.131 13473786.469 10 0 60983 61200.00000 0 -22833805.309 -3662474.668 10724192.806 10 0 60983 62100.00000 0 -23961332.214 -3896892.736 7765865.267 10 0 60983 63000.00000 0 -24743425.487 -3946587.228 4656321.127 10 0 60983 63900.00000 0 -25146819.989 -3858368.530 1456076.904 10 0 60983 64800.00000 0 -25150556.386 -3684712.544 -1772537.444 10 0 60983 65700.00000 0 -24746893.664 -3481287.398 -4966603.978 10 0 60983 66600.00000 0 -23941682.696 -3304345.062 -8063856.684 10 0 60983 67500.00000 0 -22754184.023 -3208090.213 -11003910.101 10 0 60983 68400.00000 0 -21216336.841 -3242139.846 -13729451.090 10 0 60983 69300.00000 0 -19371509.862 -3449183.275 -16187368.902 10 0 60983 70200.00000 0 -17272786.973 -3862943.502 -18329800.205 10 0 60983 71100.00000 0 -14980860.463 -4506527.758 -20115067.760 10 0 60983 72000.00000 0 -12561621.251 -5391238.138 -21508493.905 10 0 60983 72900.00000 0 -10083548.106 -6515893.253 -22483072.954 10 0 60983 73800.00000 0 -7615005.971 -7866689.840 -23019989.818 10 0 60983 74700.00000 0 -5221566.863 -9417610.103 -23108975.446 10 0 60983 75600.00000 0 -2963465.228 -11131357.327 -22748493.206 10 0 60983 76500.00000 0 -893293.374 -12960780.055 -21945753.707 10 0 60983 77400.00000 0 945967.996 -14850724.553 -20716558.975 10 0 60983 78300.00000 0 2522503.737 -16740237.523 -19084980.164 10 0 60983 79200.00000 0 3816740.011 -18565026.559 -17082876.054 10 0 60983 80100.00000 0 4821899.398 -20260075.304 -14749262.583 10 0 60983 81000.00000 0 5544014.843 -21762304.075 -12129546.284 10 0 60983 81900.00000 0 6001404.481 -23013165.119 -9274636.974 10 0 60983 82800.00000 0 6223631.799 -23961064.556 -6239957.165 10 0 60983 83700.00000 0 6249996.901 -24563510.541 -3084367.534 10 0 60983 84600.00000 0 6127623.932 -24788898.698 130970.870 10 0 60983 85500.00000 0 5909226.261 -24617861.044 3343775.836 10 0 60984 0.00000 0 5650644.214 -24044122.908 6491841.918 10 0 60984 900.00000 0 5408259.077 -23074832.280 9514236.169 10 0 60984 1800.00000 0 5236392.508 -21730349.068 12352465.023 10 0 60984 2700.00000 0 5184800.006 -20043502.077 14951596.247 10 0 60984 3600.00000 0 5296363.821 -18058345.065 17261311.003 10 0 60984 4500.00000 0 5605081.834 -15828462.765 19236868.328 10 0 60984 5400.00000 0 6134436.837 -13414896.395 20839964.105 10 0 60984 6300.00000 0 6896214.907 -10883773.569 22039468.743 10 0 60984 7200.00000 0 7889823.143 -8303739.623 22812029.937 10 0 60984 8100.00000 0 9102136.591 -5743295.435 23142529.182 10 0 60984 9000.00000 0 10507882.394 -3268150.729 23024383.180 10 0 60984 9900.00000 0 12070547.180 -938701.439 22459683.855 10 0 60984 10800.00000 0 13743771.953 1192265.150 21459173.421 10 0 60984 11700.00000 0 15473178.491 3081542.821 20042053.768 10 0 60984 12600.00000 0 17198552.928 4697074.599 18235632.392 10 0 60984 13500.00000 0 18856296.910 6019051.342 16074810.078 10 0 60984 14400.00000 0 20382044.849 7040494.598 13601418.671 10 0 60984 15300.00000 0 21713338.110 7767298.903 10863420.350 10 0 60984 16200.00000 0 22792243.742 8217731.361 7913982.810 10 0 60984 17100.00000 0 23567806.953 8421409.274 4810447.648 10 0 60984 18000.00000 0 23998232.807 8417798.901 1613211.877 10 0 60984 18900.00000 0 24052703.593 8254299.118 -1615455.292 10 0 60984 19800.00000 0 23712753.435 7983991.820 -4812636.504 10 0 60984 20700.00000 0 22973140.380 7663155.528 -7916005.983 10 0 60984 21600.00000 0 21842177.659 7348649.112 -10865059.216 10 0 60984 22500.00000 0 20341508.997 7095278.333 -13602307.037 10 0 60984 23400.00000 0 18505336.806 6953258.711 -16074409.206 10 0 60984 24300.00000 0 16379135.574 6965883.968 -18233224.068 10 0 60984 25200.00000 0 14017904.847 7167500.344 -20036752.890 10 0 60984 26100.00000 0 11484035.756 7581873.626 -21449959.865 10 0 60984 27000.00000 0 8844881.308 8221018.661 -22445451.778 10 0 60984 27900.00000 0 6170132.852 9084541.029 -23004004.416 10 0 60984 28800.00000 0 3529112.961 10159518.534 -23114926.184 10 0 60984 29700.00000 0 988097.872 11420927.065 -22776252.850 10 0 60984 30600.00000 0 -1392219.149 12832592.289 -21994770.757 10 0 60984 31500.00000 0 -3559018.629 14348626.439 -20785869.266 10 0 60984 32400.00000 0 -5469305.849 15915289.186 -19173226.419 10 0 60984 33300.00000 0 -7091442.559 17473193.972 -17188334.987 10 0 60984 34200.00000 0 -8406197.827 18959766.894 -14869878.960 10 0 60984 35100.00000 0 -9407276.751 20311854.938 -12262973.253 10 0 60984 36000.00000 0 -10101307.595 21468374.413 -9418281.849 10 0 60984 36900.00000 0 -10507290.440 22372888.922 -6391031.792 10 0 60984 37800.00000 0 -10655532.822 22976009.455 -3239942.234 10 0 60984 38700.00000 0 -10586118.963 23237516.708 -26089.193 10 0 60984 39600.00000 0 -10346978.425 23128117.473 3188272.155 10 0 60984 40500.00000 0 -9991636.341 22630762.226 6340905.294 10 0 60984 41400.00000 0 -9576740.403 21741469.306 9370787.665 10 0 60984 42300.00000 0 -9159468.702 20469621.507 12219281.006 10 0 60984 43200.00000 0 -8794927.196 18837722.653 14831254.947 10 0 60984 44100.00000 0 -8533645.802 16880623.931 17156143.130 10 0 60984 45000.00000 0 -8419277.846 14644251.447 19148912.370 10 0 60984 45900.00000 0 -8486599.091 12183886.854 20770927.129 10 0 60984 46800.00000 0 -8759890.198 9562071.059 21990693.443 10 0 60984 47700.00000 0 -9251770.688 6846216.474 22784468.539 10 0 60984 48600.00000 0 -9962533.986 4106025.133 23136724.707 10 0 60984 49500.00000 0 -10880012.534 1410818.027 23040458.450 10 0 60984 50400.00000 0 -11979980.234 -1173115.092 22497338.455 10 0 60984 51300.00000 0 -13227077.237 -3585036.803 21517688.742 10 0 60984 52200.00000 0 -14576220.469 -5772050.286 20120306.067 10 0 60984 53100.00000 0 -15974442.794 -7691060.165 18332113.681 10 0 60984 54000.00000 0 -17363085.538 -9310324.475 16187656.530 10 0 60984 54900.00000 0 -18680253.814 -10610532.890 13728446.052 10 0 60984 55800.00000 0 -19863432.293 -11585365.713 11002165.851 10 0 60984 56700.00000 0 -20852151.668 -12241509.796 8061752.545 10 0 60984 57600.00000 0 -21590593.040 -12598130.307 4964368.910 10 0 60984 58500.00000 0 -22030019.411 -12685820.388 1770289.154 10 0 60984 59400.00000 0 -22130930.125 -12545073.150 -1458281.651 10 0 60984 60300.00000 0 -21864845.512 -12224341.078 -4658430.157 10 0 60984 61200.00000 0 -21215644.361 -11777765.923 -7767774.222 10 0 60984 62100.00000 0 -20180396.000 -11262676.506 -10725693.615 10 0 60984 63000.00000 0 -18769650.247 -10736962.086 -13474526.345 10 0 60984 63900.00000 0 -17007171.938 -10256434.294 -15960705.658 10 0 60984 64800.00000 0 -14929130.565 -9872291.128 -18135814.252 10 0 60984 65700.00000 0 -12582778.920 -9628791.885 -19957534.141 10 0 60984 66600.00000 0 -10024676.516 -9561242.556 -21390473.107 10 0 60984 67500.00000 0 -7318532.755 -9694377.613 -22406851.524 10 0 60984 68400.00000 0 -4532760.688 -10041206.745 -22987036.527 10 0 60984 69300.00000 0 -1737844.174 -10602375.058 -23119913.809 10 0 60984 70200.00000 0 996371.433 -11366063.060 -22803090.770 10 0 60984 71100.00000 0 3603352.221 -12308429.879 -22042928.214 10 0 60984 72000.00000 0 6022401.463 -13394579.996 -20854401.126 10 0 60984 72900.00000 0 8200934.070 -14580011.884 -19260792.410 10 0 60984 73800.00000 0 10096406.608 -15812486.741 -17293226.537 10 0 60984 74700.00000 0 11677824.437 -17034238.095 -14990053.059 10 0 60984 75600.00000 0 12926765.480 -18184429.003 -12396092.632 10 0 60984 76500.00000 0 13837880.404 -19201753.480 -9561760.656 10 0 60984 77400.00000 0 14418850.863 -20027073.016 -6542085.863 10 0 60984 78300.00000 0 14689809.955 -20605977.792 -3395642.995 10 0 60984 79200.00000 0 14682251.360 -20891165.616 -183420.167 10 0 60984 80100.00000 0 14437474.629 -20844539.316 3032357.308 10 0 60984 81000.00000 0 14004633.192 -20438935.200 6189424.276 10 0 60984 81900.00000 0 13438467.876 -19659410.598 9226671.670 10 0 60984 82800.00000 0 12796821.442 -18504036.815 12085318.551 10 0 60984 83700.00000 0 12138038.491 -16984164.252 14710038.452 10 0 60984 84600.00000 0 11518359.545 -15124148.199 17050019.220 10 0 60984 85500.00000 0 10989418.135 -12960545.925 19059936.828 99